Hourly Weather Roundup
Issued by NWS Central Illinois

Home | Current Version | Previous Version | Text Only | Print | Product List | Glossary On
Versions: 1 2 3 4 5 6 7 8 9 10 11 12 13 14 15 16 17 18 19 20 21 22 23 24 25 26 27 28 29 30 31 32 33 34 35 36 37 38 39 40 41 42 43 44 45 46 47 48 49 50
000
NZUS43 KILX 262010
HWRILX

AREA WEATHER ROUNDUP
NATIONAL WEATHER SERVICE, LINCOLN IL
300 PM CDT SUN APR 26 2015


CITY           SKY/WX    TMP DP  RH WIND       PRES   REMARKS
BLOOMINGTON    MOSUNNY   58  37  45 NE21G26   29.99F
CHAMPAIGN      MOSUNNY   57  38  48 N17G24    29.95F
DECATUR        MOSUNNY   59  39  47 N18G25    29.96S
EFFINGHAM      SUNNY     59  33  37 N12G17    29.94F
FLORA          SUNNY     61  37  40 N14       29.92S
GALESBURG      SUNNY     59  34  39 NE13      30.01F
JACKSONVILLE   SUNNY     61  35  37 NE12G18   29.98S
LACON          MOSUNNY   56  34  44 NE6G16    30.01S
LAWRENCEVILLE  SUNNY     62  36  37 N15       29.90F
LITCHFIELD     SUNNY     58  34  40 NE14      29.95S
$$


CITY           SKY/WX    TMP DP  RH WIND       PRES   REMARKS
LINCOLN        MOSUNNY   59  38  47 NE15      29.97F
MACOMB         SUNNY     59  35  41 NE14G21   30.03S
MATTOON        SUNNY     58  39  49 N13G23    29.92F
MT CARMEL AP   SUNNY     63  30  29 N7G21     29.89S
OLNEY-NOBLE AP SUNNY     61  34  36 NE8       29.91F
PARIS          SUNNY     57  39  50 N15       29.94S
PEORIA         SUNNY     60  35  39 N10G21    30.00F
PONTIAC        SUNNY     58  34  40 N17       30.00F
RANTOUL        PTSUNNY   58  36  44 NE16G24   29.96S
ROBINSON       SUNNY     60  33  36 NE9       29.91S
SPRINGFIELD    MOSUNNY   61  39  44 NE17      29.98S
TAYLORVILLE    SUNNY     59  36  41 NE13G21   29.96F
$$

...REGIONAL REPORTS...


CITY           SKY/WX    TMP DP  RH WIND       PRES   REMARKS
CHICAGO O`HARE MOSUNNY   56  26  31 NE18G25   30.01S
KANKAKEE       SUNNY     55  32  41 N16       30.00S
MOLINE         SUNNY     60  32  34 NE6       30.02F
MOUNT VERNON   SUNNY     61  36  39 N12G17    29.91S
PITTSFIELD     SUNNY     60  33  35 NE12G18   29.99S
QUINCY         SUNNY     60  34  37 N13G22    29.99S
ROCKFORD       MOSUNNY   60  29  30 N13G20    30.04F
$$


CITY           SKY/WX    TMP DP  RH WIND       PRES   REMARKS
BURLINGTON     SUNNY     60  35  39 N12       30.01F
CEDAR RAPIDS   SUNNY     58  34  40 NE8       30.03F
DES MOINES     MOSUNNY   63  27  25 E14G20    30.03F
KIRKSVILLE     SUNNY     61  37  41 NE14      30.00F
OTTUMWA        SUNNY     59  31  34 N8        30.03F
ST LOUIS       MOSUNNY   63  35  35 NE13G21   29.94F
$$


CITY           SKY/WX    TMP DP  RH WIND       PRES   REMARKS
TERRE HAUTE    SUNNY     59  38  45 NE12G21   29.91F
EVANSVILLE     SUNNY     62  33  33 N16       29.88S
INDIANAPOLIS   MOSUNNY   56  35  45 N14G21    29.90S
LAFAYETTE      PTSUNNY   55  34  45 N12       29.93F
MADISON        MOSUNNY   58  25  28 N8        30.03F
MILWAUKEE      MOSUNNY   49  31  49 NE15      30.03F
$$




USA.gov is the U.S. government's official web portal to all federal, state and local government web resources and services.